Location: Roanoke
(37.2710°N, 79.9420°W)
Time: 11:23:22
(UTC-05:00)

Courier 1B Rocket - Pass Details

Date: 17 November 2019
Orbit: 920 x 1202 km, 28.2° (Epoch: 10 December)

Event Time Altitude Azimuth Distance (km) Brightness Sun altitude
Rises 16:46:05 0° 246° (WSW) 3,887 11.5 3.2°
Reaches altitude 10° 16:48:56 10° 239° (WSW) 2,972 10.1 2.7°
Maximum altitude 16:55:43 40° 172° (S) 1,637 6.5 1.4°
Drops below altitude 10° 17:02:50 10° 106° (ESE) 3,113 7.2 0.2°
Sets 17:05:54 0° 99° (E) 4,090 7.7 -0.4°
